GRBBETA

Last updated on Wed Oct 29 2025 00:03:53 GMT+0000 (Coordinated Universal Time)

1 60237U 24128C 25301.35517445 .00005622 00000+0 40468-3 0 9999 2 60237 61.9910 308.2447 0057034 86.9406 273.8210 15.04091960 71361
UTC large
Height (km)
Speed (km/s)
/
Latitude / Longitude
Inclination (degrees)
Orbital Period (minutes)
Azimuth
Elevation
Range (km)
Doppler Factor

Next 0 passes for location: London (51.5072 / 0.1276)

Sorry there are no passes over London.